• în Republica Moldova
  • Lista ţărilor
  • Pe 7 zile
  • Temperatura apei
  • Hartă satelitară
  • Meteo pe hartă
  • Widget-uri
  • user-avatar
    Intrare

    Meteo pe oră la Namibe

    Astăzi, 20 Februarie, Luni

    Timp Temperatura Precipitaţii Vânt Presiune Umiditate
    00:00 +27°C° 0 mm 1 m/s 758 mmHg 72%
    01:00 +27°C° 0 mm 1 m/s 758 mmHg 72%
    02:00 +27°C° 0 mm 1 m/s 758 mmHg 73%
    03:00 +27°C° 0 mm 1 m/s 758 mmHg 73%
    04:00 +27°C° 0 mm 1 m/s 757 mmHg 74%
    05:00 +27°C° 0 mm 1 m/s 758 mmHg 75%
    06:00 +26°C° 0 mm 1 m/s 758 mmHg 76%
    07:00 +26°C° 0 mm 1 m/s 758 mmHg 78%
    08:00 +28°C° 0 mm 2 m/s 758 mmHg 69%
    09:00 +30°C° 0 mm 2 m/s 758 mmHg 59%
    10:00 +33°C° 0 mm 3 m/s 758 mmHg 50%
    11:00 +33°C° 0 mm 4 m/s 758 mmHg 48%
    12:00 +34°C° 0 mm 5 m/s 758 mmHg 46%
    13:00 +35°C° 0 mm 5 m/s 757 mmHg 44%
    14:00 +34°C° 0 mm 5 m/s 757 mmHg 47%
    15:00 +33°C° 0 mm 5 m/s 757 mmHg 49%
    16:00 +32°C° 0 mm 5 m/s 757 mmHg 51%
    17:00 +30°C° 0 mm 5 m/s 757 mmHg 59%
    18:00 +28°C° 0 mm 4 m/s 757 mmHg 66%
    19:00 +27°C° 0 mm 4 m/s 758 mmHg 73%
    20:00 +26°C° 0 mm 3 m/s 758 mmHg 75%
    21:00 +26°C° 0 mm 2 m/s 759 mmHg 77%
    22:00 +26°C° 0 mm 2 m/s 759 mmHg 79%
    23:00 +25°C° 0 mm 1 m/s 759 mmHg 79%

    Mâine, 21 Februarie, Marţi

    Timp Temperatura Precipitaţii Vânt Presiune Umiditate
    00:00 +25°C° 0 mm 1 m/s 759 mmHg 79%
    01:00 +25°C° 0 mm 1 m/s 759 mmHg 79%
    02:00 +25°C° 0 mm 1 m/s 758 mmHg 79%
    03:00 +25°C° 0 mm 1 m/s 758 mmHg 80%
    04:00 +25°C° 0 mm 1 m/s 758 mmHg 80%
    05:00 +25°C° 0 mm 1 m/s 758 mmHg 80%
    06:00 +25°C° 0 mm 1 m/s 758 mmHg 80%
    07:00 +25°C° 0 mm 1 m/s 758 mmHg 80%
    08:00 +27°C° 0 mm 1 m/s 758 mmHg 71%
    09:00 +29°C° 0 mm 2 m/s 758 mmHg 62%
    10:00 +30°C° 0 mm 2 m/s 758 mmHg 53%
    11:00 +33°C° 0 mm 3 m/s 758 mmHg 49%
    12:00 +34°C° 0 mm 4 m/s 757 mmHg 44%
    13:00 +36°C° 0 mm 4 m/s 757 mmHg 39%
    14:00 +35°C° 0 mm 5 m/s 756 mmHg 41%
    15:00 +34°C° 0 mm 5 m/s 756 mmHg 43%
    16:00 +33°C° 0 mm 5 m/s 755 mmHg 44%
    17:00 +32°C° 0 mm 5 m/s 756 mmHg 52%
    18:00 +29°C° 0 mm 4 m/s 756 mmHg 60%
    19:00 +27°C° 0 mm 4 m/s 757 mmHg 67%
    20:00 +27°C° 0 mm 3 m/s 758 mmHg 70%
    21:00 +26°C° 0 mm 3 m/s 758 mmHg 73%
    22:00 +26°C° 0 mm 2 m/s 759 mmHg 76%
    23:00 +26°C° 0 mm 2 m/s 759 mmHg 76%

    Poimâine, 22 Februarie, Miercuri

    Timp Temperatura Precipitaţii Vânt Presiune Umiditate
    00:00 +26°C° 0 mm 2 m/s 758 mmHg 76%
    01:00 +26°C° 0 mm 2 m/s 758 mmHg 77%
    02:00 +26°C° 0 mm 2 m/s 758 mmHg 77%
    03:00 +26°C° 0 mm 2 m/s 758 mmHg 78%
    04:00 +25°C° 0 mm 2 m/s 757 mmHg 79%
    05:00 +25°C° 0 mm 2 m/s 757 mmHg 79%
    06:00 +25°C° 0 mm 2 m/s 758 mmHg 79%
    07:00 +25°C° 0 mm 2 m/s 758 mmHg 80%
    08:00 +27°C° 0 mm 2 m/s 758 mmHg 71%
    09:00 +28°C° 0 mm 2 m/s 758 mmHg 63%
    10:00 +30°C° 0 mm 2 m/s 759 mmHg 54%
    11:00 +33°C° 0 mm 3 m/s 758 mmHg 50%
    12:00 +34°C° 0 mm 4 m/s 758 mmHg 45%
    13:00 +36°C° 0 mm 5 m/s 757 mmHg 41%
    14:00 +35°C° 0 mm 5 m/s 756 mmHg 43%
    15:00 +34°C° 0 mm 5 m/s 756 mmHg 46%
    16:00 +33°C° 0 mm 6 m/s 755 mmHg 49%
    17:00 +32°C° 0 mm 5 m/s 756 mmHg 54%
    18:00 +29°C° 0 mm 5 m/s 756 mmHg 59%
    19:00 +27°C° 0 mm 4 m/s 757 mmHg 65%
    20:00 +27°C° 0 mm 4 m/s 758 mmHg 66%
    21:00 +27°C° 0 mm 3 m/s 758 mmHg 68%
    22:00 +26°C° 0 mm 3 m/s 759 mmHg 70%
    23:00 +26°C° 0 mm 3 m/s 758 mmHg 71%

    23 Februarie, Joi

    Timp Temperatura Precipitaţii Vânt Presiune Umiditate
    00:00 +26°C° 0 mm 2 m/s 758 mmHg 72%
    01:00 +26°C° 0 mm 2 m/s 758 mmHg 73%
    02:00 +25°C° 0 mm 2 m/s 758 mmHg 74%
    03:00 +25°C° 0 mm 2 m/s 757 mmHg 76%
    04:00 +25°C° 0 mm 2 m/s 757 mmHg 77%
    05:00 +25°C° 0 mm 2 m/s 758 mmHg 77%
    06:00 +25°C° 0 mm 2 m/s 758 mmHg 78%
    07:00 +25°C° 0 mm 2 m/s 758 mmHg 78%
    08:00 +26°C° 0 mm 2 m/s 758 mmHg 70%
    09:00 +28°C° 0 mm 2 m/s 759 mmHg 62%
    10:00 +30°C° 0 mm 2 m/s 759 mmHg 54%
    11:00 +33°C° 0 mm 3 m/s 758 mmHg 48%
    12:00 +34°C° 0 mm 4 m/s 757 mmHg 42%
    13:00 +36°C° 0 mm 5 m/s 757 mmHg 37%
    14:00 +36°C° 0 mm 5 m/s 756 mmHg 39%
    15:00 +35°C° 0 mm 6 m/s 756 mmHg 41%
    16:00 +34°C° 0 mm 6 m/s 755 mmHg 44%
    17:00 +33°C° 0 mm 6 m/s 756 mmHg 50%
    18:00 +30°C° 0 mm 6 m/s 756 mmHg 57%
    19:00 +28°C° 0 mm 6 m/s 756 mmHg 64%
    20:00 +27°C° 0 mm 6 m/s 757 mmHg 66%
    21:00 +27°C° 0 mm 5 m/s 757 mmHg 68%
    22:00 +27°C° 0 mm 5 m/s 758 mmHg 71%
    23:00 +26°C° 0 mm 5 m/s 757 mmHg 71%

    24 Februarie, Vineri

    Timp Temperatura Precipitaţii Vânt Presiune Umiditate
    00:00 +26°C° 0 mm 4 m/s 757 mmHg 71%
    01:00 +26°C° 0 mm 4 m/s 757 mmHg 71%
    02:00 +25°C° 0 mm 4 m/s 757 mmHg 72%
    03:00 +25°C° 0 mm 4 m/s 756 mmHg 73%
    04:00 +25°C° 0 mm 4 m/s 756 mmHg 74%
    05:00 +25°C° 0 mm 3 m/s 757 mmHg 74%
    06:00 +25°C° 0 mm 3 m/s 757 mmHg 74%
    07:00 +25°C° 0 mm 3 m/s 757 mmHg 74%
    08:00 +27°C° 0 mm 3 m/s 758 mmHg 66%
    09:00 +29°C° 0 mm 3 m/s 758 mmHg 59%
    10:00 +31°C° 0 mm 3 m/s 758 mmHg 51%
    11:00 +33°C° 0 mm 4 m/s 757 mmHg 47%
    12:00 +35°C° 0 mm 4 m/s 757 mmHg 43%
    13:00 +36°C° 0 mm 5 m/s 756 mmHg 39%
    14:00 +35°C° 0 mm 6 m/s 756 mmHg 41%
    15:00 +35°C° 0 mm 6 m/s 755 mmHg 44%
    16:00 +34°C° 0 mm 7 m/s 755 mmHg 46%
    17:00 +32°C° 0 mm 6 m/s 756 mmHg 52%
    18:00 +29°C° 0 mm 6 m/s 756 mmHg 58%
    19:00 +28°C° 0 mm 5 m/s 757 mmHg 64%
    20:00 +27°C° 0 mm 5 m/s 757 mmHg 67%
    21:00 +27°C° 0 mm 5 m/s 758 mmHg 70%
    22:00 +26°C° 0 mm 4 m/s 758 mmHg 73%
    23:00 +26°C° 0 mm 4 m/s 758 mmHg 74%

    25 Februarie, Sâmbătă

    Timp Temperatura Precipitaţii Vânt Presiune Umiditate
    00:00 +25°C° 0 mm 3 m/s 758 mmHg 75%
    01:00 +25°C° 0 mm 3 m/s 757 mmHg 77%
    02:00 +25°C° 0 mm 3 m/s 757 mmHg 78%
    03:00 +25°C° 0 mm 3 m/s 757 mmHg 79%
    04:00 +24°C° 0 mm 2 m/s 757 mmHg 80%
    05:00 +24°C° 0 mm 2 m/s 757 mmHg 80%
    06:00 +24°C° 0 mm 2 m/s 758 mmHg 79%
    07:00 +25°C° 0 mm 2 m/s 758 mmHg 79%
    08:00 +27°C° 0 mm 2 m/s 758 mmHg 69%
    09:00 +29°C° 0 mm 2 m/s 758 mmHg 59%
    10:00 +31°C° 0 mm 2 m/s 758 mmHg 48%
    11:00 +34°C° 0 mm 3 m/s 758 mmHg 43%
    12:00 +36°C° 0 mm 4 m/s 757 mmHg 38%
    13:00 +39°C° 0 mm 5 m/s 756 mmHg 33%
    14:00 +37°C° 0 mm 5 m/s 756 mmHg 37%
    15:00 +36°C° 0 mm 6 m/s 755 mmHg 41%
    16:00 +35°C° 0 mm 6 m/s 755 mmHg 44%
    17:00 +33°C° 0 mm 6 m/s 756 mmHg 50%
    18:00 +30°C° 0 mm 5 m/s 756 mmHg 56%
    19:00 +28°C° 0 mm 5 m/s 757 mmHg 61%
    20:00 +28°C° 0 mm 4 m/s 757 mmHg 62%
    21:00 +28°C° 0 mm 4 m/s 757 mmHg 63%
    22:00 +27°C° 0 mm 3 m/s 758 mmHg 64%
    23:00 +27°C° 0 mm 3 m/s 758 mmHg 64%
    Arată mai mult